Location: Kapuskasing
(49.3803°N, 82.4001°W)
Time: 15:20:25
(UTC-05:00)

RS-44 - Pass Details

Date: 16 December 2025
Orbit: 1174 x 1511 km, 82.5° (Epoch: 21 January)

Event Time Altitude Azimuth Distance (km) Brightness Sun altitude
Exits shadow 02:32:51 14° 7° (N) 3,277 ? -53.9°
Drops below altitude 10° 02:33:50 10° 8° (N) 3,596 ? -53.8°
Sets 02:36:40 0° 11° (N) 4,543 ? -53.4°
